Time,TemperatureF,DewpointF,PressureIn,WindDirection,WindDirectionDegrees,WindSpeedMPH,WindSpeedGustMPH,Humidity,HourlyPrecipIn,Conditions,Clouds,dailyrainin,SoftwareType,DateUTC
2013-07-09 00:01:00,46.0,44.0,-100.00,North,355,0.0,1.0,93,-99.99,,,-99.99,,2013-07-09 08:01:00,
2013-07-09 00:11:00,46.0,44.0,-100.00,North,355,0.0,1.0,93,-99.99,,,-99.99,,2013-07-09 08:11:00,
2013-07-09 00:33:00,45.0,44.0,-100.00,South,185,0.0,2.0,94,-99.99,,,-99.99,,2013-07-09 08:33:00,
2013-07-09 00:43:00,45.0,44.0,-100.00,South,185,0.0,2.0,94,-99.99,,,-99.99,,2013-07-09 08:43:00,
2013-07-09 00:52:00,45.0,44.0,-100.00,SE,145,1.0,2.0,94,-99.99,,,-99.99,,2013-07-09 08:52:00,
2013-07-09 01:02:00,45.0,44.0,-100.00,SE,145,1.0,2.0,94,-99.99,,,-99.99,,2013-07-09 09:02:00,
2013-07-09 01:11:00,45.0,44.0,-100.00,SE,145,1.0,2.0,94,-99.99,,,-99.99,,2013-07-09 09:11:00,
2013-07-09 01:34:00,45.0,44.0,-100.00,South,185,0.0,2.0,95,-99.99,,,-99.99,,2013-07-09 09:34:00,
2013-07-09 01:42:00,45.0,44.0,-100.00,South,185,0.0,2.0,95,-99.99,,,-99.99,,2013-07-09 09:42:00,
2013-07-09 01:52:00,46.0,45.0,-100.00,SSE,165,1.0,2.0,95,-99.99,,,-99.99,,2013-07-09 09:52:00,
2013-07-09 02:01:00,46.0,45.0,-100.00,SSE,165,1.0,2.0,95,-99.99,,,-99.99,,2013-07-09 10:01:00,
2013-07-09 02:11:00,46.0,45.0,-100.00,SSE,165,1.0,2.0,95,-99.99,,,-99.99,,2013-07-09 10:11:00,
2013-07-09 02:33:00,47.0,45.0,-100.00,NNE,20,1.0,1.0,95,-99.99,,,-99.99,,2013-07-09 10:33:00,
2013-07-09 02:42:00,47.0,45.0,-100.00,NNE,20,1.0,1.0,95,-99.99,,,-99.99,,2013-07-09 10:42:00,
2013-07-09 02:52:00,47.0,45.0,-100.00,NNW,340,1.0,2.0,93,-99.99,,,-99.99,,2013-07-09 10:52:00,
2013-07-09 03:01:00,47.0,45.0,-100.00,NNW,340,1.0,2.0,93,-99.99,,,-99.99,,2013-07-09 11:01:00,
2013-07-09 03:11:00,47.0,45.0,-100.00,NNW,340,1.0,2.0,93,-99.99,,,-99.99,,2013-07-09 11:11:00,
2013-07-09 03:33:00,47.0,45.0,-100.00,WSW,255,0.0,2.0,95,-99.99,,,-99.99,,2013-07-09 11:33:00,
2013-07-09 03:42:00,47.0,45.0,-100.00,WSW,255,0.0,2.0,95,-99.99,,,-99.99,,2013-07-09 11:42:00,
2013-07-09 03:53:00,47.0,46.0,-100.00,NNE,30,0.0,1.0,94,-99.99,,,-99.99,,2013-07-09 11:53:00,
2013-07-09 04:02:00,47.0,46.0,-100.00,NNE,30,0.0,1.0,94,-99.99,,,-99.99,,2013-07-09 12:02:00,
2013-07-09 04:11:00,47.0,46.0,-100.00,NNE,30,0.0,1.0,94,-99.99,,,-99.99,,2013-07-09 12:11:00,
2013-07-09 04:20:00,46.0,45.0,-100.00,South,185,0.0,0.0,95,-99.99,,,-99.99,,2013-07-09 12:20:00,
2013-07-09 04:33:00,47.0,45.0,-100.00,NNW,345,1.0,1.0,94,-99.99,,,-99.99,,2013-07-09 12:33:00,
2013-07-09 04:43:00,47.0,45.0,-100.00,NNW,345,1.0,1.0,94,-99.99,,,-99.99,,2013-07-09 12:43:00,
2013-07-09 04:52:00,46.0,45.0,-100.00,South,185,0.0,0.0,95,-99.99,,,-99.99,,2013-07-09 12:52:00,
2013-07-09 05:01:00,46.0,45.0,-100.00,South,185,0.0,0.0,95,-99.99,,,-99.99,,2013-07-09 13:01:00,
2013-07-09 05:11:00,46.0,45.0,-100.00,South,185,0.0,0.0,95,-99.99,,,-99.99,,2013-07-09 13:11:00,
2013-07-09 05:43:00,46.0,45.0,-100.00,NE,55,1.0,1.0,96,-99.99,,,-99.99,,2013-07-09 13:43:00,
2013-07-09 05:53:00,46.0,45.0,-100.00,SE,125,2.0,4.0,96,-99.99,,,-99.99,,2013-07-09 13:53:00,
2013-07-09 06:01:00,46.0,45.0,-100.00,SE,125,2.0,4.0,96,-99.99,,,-99.99,,2013-07-09 14:01:00,
2013-07-09 06:11:00,46.0,45.0,-100.00,SE,125,2.0,4.0,96,-99.99,,,-99.99,,2013-07-09 14:11:00,
2013-07-09 06:34:00,46.0,45.0,-100.00,SE,125,2.0,2.0,97,-99.99,,,-99.99,,2013-07-09 14:34:00,
2013-07-09 06:43:00,46.0,45.0,-100.00,SE,125,2.0,2.0,97,-99.99,,,-99.99,,2013-07-09 14:43:00,
2013-07-09 07:01:00,46.0,45.0,-100.00,NNW,330,1.0,2.0,97,-99.99,,,-99.99,,2013-07-09 15:01:00,
2013-07-09 07:11:00,46.0,45.0,-100.00,NNW,330,1.0,2.0,97,-99.99,,,-99.99,,2013-07-09 15:11:00,
2013-07-09 07:22:00,46.0,45.0,-100.00,NW,305,1.0,1.0,97,-99.99,,,-99.99,,2013-07-09 15:22:00,
2013-07-09 07:33:00,46.0,45.0,-100.00,NW,305,1.0,1.0,97,-99.99,,,-99.99,,2013-07-09 15:33:00,
2013-07-09 07:43:00,46.0,45.0,-100.00,NW,305,1.0,1.0,97,-99.99,,,-99.99,,2013-07-09 15:43:00,
2013-07-09 08:01:00,47.0,46.0,-100.00,NW,305,0.0,0.0,97,-99.99,,,-99.99,,2013-07-09 16:01:00,
2013-07-09 08:11:00,47.0,46.0,-100.00,NW,305,0.0,0.0,97,-99.99,,,-99.99,,2013-07-09 16:11:00,
2013-07-09 08:20:00,47.0,47.0,-100.00,NNW,345,6.0,7.0,97,-99.99,,,-99.99,,2013-07-09 16:20:00,
2013-07-09 08:33:00,47.0,46.0,-100.00,NW,325,1.0,2.0,97,-99.99,,,-99.99,,2013-07-09 16:33:00,
2013-07-09 08:43:00,47.0,46.0,-100.00,NW,325,1.0,2.0,97,-99.99,,,-99.99,,2013-07-09 16:43:00,
2013-07-09 09:02:00,47.0,47.0,-100.00,NNW,345,6.0,7.0,97,-99.99,,,-99.99,,2013-07-09 17:02:00,
2013-07-09 09:11:00,47.0,47.0,-100.00,NNW,345,6.0,7.0,97,-99.99,,,-99.99,,2013-07-09 17:11:00,
2013-07-09 09:45:00,48.0,47.0,-100.00,NNW,330,6.0,7.0,97,-99.99,,,-99.99,,2013-07-09 17:45:00,
2013-07-09 09:53:00,49.0,48.0,-100.00,NNW,340,6.0,9.0,95,-99.99,,,-99.99,,2013-07-09 17:53:00,
2013-07-09 10:01:00,49.0,48.0,-100.00,NNW,340,6.0,9.0,95,-99.99,,,-99.99,,2013-07-09 18:01:00,
2013-07-09 10:11:00,49.0,48.0,-100.00,NNW,340,6.0,9.0,95,-99.99,,,-99.99,,2013-07-09 18:11:00,
2013-07-09 10:22:00,52.0,47.0,-100.00,North,355,7.0,12.0,84,-99.99,,,-99.99,,2013-07-09 18:22:00,
2013-07-09 10:32:00,52.0,47.0,-100.00,North,355,7.0,12.0,84,-99.99,,,-99.99,,2013-07-09 18:32:00,
2013-07-09 10:42:00,52.0,47.0,-100.00,North,355,7.0,12.0,84,-99.99,,,-99.99,,2013-07-09 18:42:00,
2013-07-09 10:52:00,52.0,45.0,-100.00,North,10,6.0,9.0,77,-99.99,,,-99.99,,2013-07-09 18:52:00,
2013-07-09 11:01:00,52.0,45.0,-100.00,North,10,6.0,9.0,77,-99.99,,,-99.99,,2013-07-09 19:01:00,
2013-07-09 11:11:00,52.0,45.0,-100.00,North,10,6.0,9.0,77,-99.99,,,-99.99,,2013-07-09 19:11:00,
2013-07-09 11:33:00,53.0,44.0,-100.00,NNW,340,11.0,13.0,73,-99.99,,,-99.99,,2013-07-09 19:33:00,
2013-07-09 11:42:00,53.0,44.0,-100.00,NNW,340,11.0,13.0,73,-99.99,,,-99.99,,2013-07-09 19:42:00,
2013-07-09 11:52:00,53.0,44.0,-100.00,NNW,340,12.0,16.0,70,-99.99,,,-99.99,,2013-07-09 19:52:00,
2013-07-09 12:01:00,53.0,44.0,-100.00,NNW,340,12.0,16.0,70,-99.99,,,-99.99,,2013-07-09 20:01:00,
2013-07-09 12:11:00,53.0,44.0,-100.00,NNW,340,12.0,16.0,70,-99.99,,,-99.99,,2013-07-09 20:11:00,
2013-07-09 12:30:00,57.0,44.0,-100.00,North,5,4.0,10.0,63,-99.99,,,-99.99,,2013-07-09 20:30:00,
2013-07-09 12:32:00,54.0,43.0,-100.00,NNW,330,9.0,14.0,66,-99.99,,,-99.99,,2013-07-09 20:32:00,
2013-07-09 12:42:00,54.0,43.0,-100.00,NNW,330,9.0,14.0,66,-99.99,,,-99.99,,2013-07-09 20:42:00,
2013-07-09 13:01:00,56.0,44.0,-100.00,North,0,6.0,10.0,64,-99.99,,,-99.99,,2013-07-09 21:01:00,
2013-07-09 13:11:00,56.0,44.0,-100.00,North,0,6.0,10.0,64,-99.99,,,-99.99,,2013-07-09 21:11:00,
2013-07-09 13:52:00,56.0,42.0,-100.00,WNW,290,2.0,9.0,60,-99.99,,,-99.99,,2013-07-09 21:52:00,
2013-07-09 14:01:00,56.0,42.0,-100.00,WNW,290,2.0,9.0,60,-99.99,,,-99.99,,2013-07-09 22:01:00,
2013-07-09 14:11:00,56.0,42.0,-100.00,WNW,290,2.0,9.0,60,-99.99,,,-99.99,,2013-07-09 22:11:00,
2013-07-09 14:22:00,59.0,43.0,-100.00,North,0,4.0,7.0,55,-99.99,,,-99.99,,2013-07-09 22:22:00,
2013-07-09 14:33:00,59.0,43.0,-100.00,North,0,4.0,7.0,55,-99.99,,,-99.99,,2013-07-09 22:33:00,
2013-07-09 14:42:00,59.0,43.0,-100.00,North,0,4.0,7.0,55,-99.99,,,-99.99,,2013-07-09 22:42:00,
2013-07-09 14:53:00,60.0,43.0,-100.00,SSW,195,4.0,5.0,53,-99.99,,,-99.99,,2013-07-09 22:53:00,
2013-07-09 15:01:00,60.0,43.0,-100.00,SSW,195,4.0,5.0,53,-99.99,,,-99.99,,2013-07-09 23:01:00,
2013-07-09 15:11:00,60.0,43.0,-100.00,SSW,195,4.0,5.0,53,-99.99,,,-99.99,,2013-07-09 23:11:00,
2013-07-09 15:33:00,62.0,44.0,-100.00,SSW,210,2.0,8.0,52,-99.99,,,-99.99,,2013-07-09 23:33:00,
2013-07-09 15:43:00,62.0,44.0,-100.00,SSW,210,2.0,8.0,52,-99.99,,,-99.99,,2013-07-09 23:43:00,
2013-07-09 15:52:00,57.0,45.0,-100.00,SSE,150,11.0,14.0,64,-99.99,,,-99.99,,2013-07-09 23:52:00,
2013-07-09 16:01:00,57.0,45.0,-100.00,SSE,150,11.0,14.0,64,-99.99,,,-99.99,,2013-07-10 00:01:00,
2013-07-09 16:11:00,57.0,45.0,-100.00,SSE,150,11.0,14.0,64,-99.99,,,-99.99,,2013-07-10 00:11:00,
2013-07-09 16:22:00,57.0,45.0,-100.00,SSE,160,11.0,13.0,63,-99.99,,,-99.99,,2013-07-10 00:22:00,
2013-07-09 16:33:00,57.0,45.0,-100.00,SSE,160,11.0,13.0,63,-99.99,,,-99.99,,2013-07-10 00:33:00,
2013-07-09 16:42:00,57.0,45.0,-100.00,SSE,160,11.0,13.0,63,-99.99,,,-99.99,,2013-07-10 00:42:00,
2013-07-09 17:01:00,58.0,45.0,-100.00,South,170,9.0,12.0,62,-99.99,,,-99.99,,2013-07-10 01:01:00,
2013-07-09 17:11:00,58.0,45.0,-100.00,South,170,9.0,12.0,62,-99.99,,,-99.99,,2013-07-10 01:11:00,
2013-07-09 17:33:00,58.0,45.0,-100.00,South,170,12.0,15.0,60,-99.99,,,-99.99,,2013-07-10 01:33:00,
2013-07-09 17:43:00,58.0,45.0,-100.00,South,170,12.0,15.0,60,-99.99,,,-99.99,,2013-07-10 01:43:00,
2013-07-09 18:01:00,57.0,44.0,-100.00,SE,145,15.0,17.0,60,-99.99,,,-99.99,,2013-07-10 02:01:00,
2013-07-09 18:11:00,57.0,44.0,-100.00,SE,145,15.0,17.0,60,-99.99,,,-99.99,,2013-07-10 02:11:00,
2013-07-09 18:34:00,56.0,44.0,-100.00,SE,135,12.0,15.0,62,-99.99,,,-99.99,,2013-07-10 02:34:00,
2013-07-09 18:43:00,56.0,44.0,-100.00,SE,135,12.0,15.0,62,-99.99,,,-99.99,,2013-07-10 02:43:00,
2013-07-09 18:53:00,58.0,44.0,-100.00,SE,125,12.0,17.0,60,-99.99,,,-99.99,,2013-07-10 02:53:00,
2013-07-09 19:01:00,58.0,44.0,-100.00,SE,125,12.0,17.0,60,-99.99,,,-99.99,,2013-07-10 03:01:00,
2013-07-09 19:11:00,58.0,44.0,-100.00,SE,125,12.0,17.0,60,-99.99,,,-99.99,,2013-07-10 03:11:00,
2013-07-09 19:32:00,58.0,45.0,-100.00,SE,130,10.0,17.0,61,-99.99,,,-99.99,,2013-07-10 03:32:00,
2013-07-09 19:43:00,58.0,45.0,-100.00,SE,130,10.0,17.0,61,-99.99,,,-99.99,,2013-07-10 03:43:00,
2013-07-09 19:52:00,56.0,44.0,-100.00,SE,135,13.0,17.0,63,-99.99,,,-99.99,,2013-07-10 03:52:00,
2013-07-09 20:01:00,56.0,44.0,-100.00,SE,135,13.0,17.0,63,-99.99,,,-99.99,,2013-07-10 04:01:00,
2013-07-09 20:11:00,56.0,44.0,-100.00,SE,135,13.0,17.0,63,-99.99,,,-99.99,,2013-07-10 04:11:00,
2013-07-09 20:32:00,56.0,44.0,-100.00,SSE,155,13.0,17.0,64,-99.99,,,-99.99,,2013-07-10 04:32:00,
2013-07-09 20:43:00,56.0,44.0,-100.00,SSE,155,13.0,17.0,64,-99.99,,,-99.99,,2013-07-10 04:43:00,
2013-07-09 21:02:00,56.0,45.0,-100.00,SSE,155,12.0,15.0,65,-99.99,,,-99.99,,2013-07-10 05:02:00,
2013-07-09 21:11:00,56.0,45.0,-100.00,SSE,155,12.0,15.0,65,-99.99,,,-99.99,,2013-07-10 05:11:00,
2013-07-09 21:22:00,56.0,46.0,-100.00,SSE,165,9.0,14.0,67,-99.99,,,-99.99,,2013-07-10 05:22:00,
2013-07-09 21:32:00,56.0,46.0,-100.00,SSE,165,9.0,14.0,67,-99.99,,,-99.99,,2013-07-10 05:32:00,
2013-07-09 21:42:00,56.0,46.0,-100.00,SSE,165,9.0,14.0,67,-99.99,,,-99.99,,2013-07-10 05:42:00,
2013-07-09 21:52:00,55.0,45.0,-100.00,SSE,160,11.0,12.0,71,-99.99,,,-99.99,,2013-07-10 05:52:00,
2013-07-09 22:01:00,55.0,45.0,-100.00,SSE,160,11.0,12.0,71,-99.99,,,-99.99,,2013-07-10 06:01:00,
2013-07-09 22:11:00,55.0,45.0,-100.00,SSE,160,11.0,12.0,71,-99.99,,,-99.99,,2013-07-10 06:11:00,
2013-07-09 22:32:00,54.0,46.0,-100.00,SSE,155,10.0,11.0,74,-99.99,,,-99.99,,2013-07-10 06:32:00,
2013-07-09 22:42:00,54.0,46.0,-100.00,SSE,155,10.0,11.0,74,-99.99,,,-99.99,,2013-07-10 06:42:00,
2013-07-09 22:52:00,53.0,46.0,-100.00,SE,140,4.0,8.0,76,-99.99,,,-99.99,,2013-07-10 06:52:00,
2013-07-09 23:01:00,53.0,46.0,-100.00,SE,140,4.0,8.0,76,-99.99,,,-99.99,,2013-07-10 07:01:00,
2013-07-09 23:11:00,53.0,46.0,-100.00,SE,140,4.0,8.0,76,-99.99,,,-99.99,,2013-07-10 07:11:00,
2013-07-09 23:33:00,52.0,47.0,-100.00,South,170,2.0,4.0,81,-99.99,,,-99.99,,2013-07-10 07:33:00,
2013-07-09 23:43:00,52.0,47.0,-100.00,South,170,2.0,4.0,81,-99.99,,,-99.99,,2013-07-10 07:43:00,